General Aviation Weather

Text Reports

Enter one or more of the following location identifiers separated by a space:

Zip Code, Four-Character ICAO or Three-Character IATA airport codes.

METAR - Aviation Routine Weather Report
KGEZ - Shelbyville, Indiana
Updated at 4:53 AM GMT on July 23, 2014 (12:53 AM EDT):
METAR KGEZ 230453Z AUTO 20003KT 8SM CLR 23/20 A3003 RMK AO2 SLP162 T02330200 403220172
TAF - Terminal Area Forecast
KGEZ - Shelbyville, Indiana
Updated at 4:53 AM GMT on July 23, 2014 (12:53 AM EDT):
No TAF is currently available for this location.
Decoded:
No decoded TAF is available.
PIREP - Pilot Weather Report
KGEZ - Shelbyville, Indiana
Updated at 4:53 AM GMT on July 23, 2014 (12:53 AM EDT):
No PIREP is currently available for this location.
AIRMET - Airmens Meteorological Information
KGEZ - Shelbyville, Indiana
Updated at 4:53 AM GMT on July 23, 2014 (12:53 AM EDT):
No AIRMET is currently available for this location.
SIGMET - Significant Meteorological Information
KGEZ - Shelbyville, Indiana
Updated at 4:53 AM GMT on July 23, 2014 (12:53 AM EDT):
No SIGMET is currently available for this location.
NOTAM - Notice to Airmen
KGEZ - Shelbyville, Indiana
Updated at 4:53 AM GMT on July 23, 2014 (12:53 AM EDT):
No NOTAM is currently available for this location.
Forecast Area
KGEZ - Shelbyville, Indiana
Updated at 4:53 AM GMT on July 23, 2014 (12:53 AM EDT):
No NOTAM is currently available for this location.
Aviation Weather Maps